Regional Weather Roundup
Issued by NWS

Home | Current Version | Previous Version | Text Only | Print | Product List | Glossary On
Versions: 1 2 3 4 5 6 7 8 9 10 11 12 13 14 15 16 17 18 19 20 21 22 23 24 25 26 27 28 29 30 31 32 33 34 35 36 37 38 39 40 41 42 43 44 45 46 47 48 49 50
000
ASUS44 KOUN 210310
RWROK

WEATHER ROUNDUP FOR OKLAHOMA
NATIONAL WEATHER SERVICE NORMAN OK
1000 PM CDT MON APR 20 2015

NOTE: "FAIR" INDICATES FEW OR NO CLOUDS BELOW 12,000 FEET WITH NO
      SIGNIFICANT WEATHER AND/OR OBSTRUCTIONS TO VISIBILITY.

OKZ001>007-009>012-014-015-017-210400-
NORTHWEST OKLAHOMA AND THE PANHANDLE

CITY           SKY/WX    TMP DP  RH WIND       PRES   REMARKS
GAGE           PTCLDY    50  37  61 SE7       29.95R
GUYMON         CLOUDY    53  45  74 S7        29.94R
ENID/WOODRING  FAIR      50  41  71 S3        29.95R
$$

OKZ016-021>023-033>039-044-045-210400-
SOUTHWEST OKLAHOMA

CITY           SKY/WX    TMP DP  RH WIND       PRES   REMARKS
LAWTON/REGL    CLEAR     52  44  74 SE3       29.97R
LAWTON/FT SILL CLEAR     56  41  57 SE5       29.96R
FREDERICK      CLEAR     54  43  66 SE8       29.95R
CLINTON        FAIR      53  40  61 SE8       29.98R
HOBART         CLEAR     51  43  74 SE9       29.96R
ALTUS AFB      CLEAR     51  44  76 SE8       29.96R
$$

OKZ018>020-024>031-210400-
CENTRAL OKLAHOMA

CITY           SKY/WX    TMP DP  RH WIND       PRES   REMARKS
OKLAHOMA CITY  CLEAR     54  37  52 SE5       29.97R
OKC/WILEY POST CLEAR     53  36  52 SE3       29.97R
OKC/TINKER AFB CLEAR     55  33  42 SE5       29.96R
STILLWATER     CLEAR     50  38  63 CALM      29.97R
GUTHRIE        CLEAR     50  38  63 SE5       29.97R
$$

OKZ008-013-054>072-210400-
NORTHEAST OKLAHOMA

CITY           SKY/WX    TMP DP  RH WIND       PRES   REMARKS
TULSA          CLEAR     56  38  50 S3        29.96R
TULSA/JONES    CLEAR     50  40  68 SW3       29.97R
PONCA CITY     CLEAR     54  38  54 S3        29.95R
BARTLESVILLE   CLEAR     50  38  63 W6        29.96R
MUSKOGEE       CLEAR     51  38  60 SW3       29.99R
$$

OKZ032-040>043-046>053-073>077-210400-
SOUTH CENTRAL/SOUTHEAST OKLAHOMA

CITY           SKY/WX    TMP DP  RH WIND       PRES   REMARKS
ARDMORE/DWNTWN CLEAR     50  43  76 CALM      30.00R
MCALESTER      PTCLDY    47  41  80 CALM      30.00R
$$



USA.gov is the U.S. government's official web portal to all federal, state and local government web resources and services.